CZ-4C R/B - Orbit

View from above orbital plane
View from above orbital plane
View from above satellite
View from above satellite

Ground track
Ground track

The orbit data is extracted from the following two-line orbital elements,

1 32290U 07055B   13142.24892569  .00003242  00000-0  14864-3 0  5879
2 32290 097.6215 209.4844 0097309 329.4009 061.1912 15.17049416304920
Epoch (UTC): 22 May 2013 05:58:27
Eccentricity: 0.0097309
inclination: 97.6215°
perigee height: 447 km
apogee height: 582 km
right ascension of ascending node: 209.4844°
argument of perigee: 329.4009°
revolutions per day: 15.17049416
mean anomaly at epoch: 61.1912°
orbit number at epoch: 30492

The dashed part of the orbit path shows where the satellite is in the earth's shadow,  

Developed and maintained by Chris Peat, Heavens-Above GmbH. Please read the updated FAQ before sending e-mail. Imprint. DLR